Terug naar catalogus

STARLINK-30171

ActiefCommunicatieVLEO
NORAD 57469·PAYLOAD·🇺🇸 United States

Gelanceerd Jul 28, 2023 vanaf Cape Canaveral Space Force Station

Loading…

Volgende Passages (komende 24 uur)

TLE

VersSource: CelesTrak SupGP

Epoch: Sep 15, 2026, 01:52 UTC

1 57469C 23107N   26258.07826389 -.00001669  00000+0 -60447-4 0  2586
2 57469  43.0026 349.8858 0001408 255.5540  58.7813 15.27575770    11

Volg STARLINK-30171 in realtime met AllMySat

Download on the App Store